FALCON 9 DEB (51475 NORAD) Tracking and Keplerian Element Data

This shows tracking and keplerian element data for the satellite.

Feedback or suggestion? Click here.




ElementValue
Catalog51475
NameFALCON 9 DEB
Epoch Orbit239
Epoch Day44.65620553
Epoch Year2022
RAAN122.493
Inclination53.2041
Eccentricity0.0025338
Argument of Perigee197.0277
Mean Anonmoly162.9921
Mean Motion16.31778256
Decay Rate0.04408467
L11 51475U 22010V 22044.65620553 .04408467 11996-4 70729-3 0 9992
L22 51475 53.2041 122.4930 0025338 197.0277 162.9921 16.31778256 2394



Live tracking and technical data element details for FALCON 9 DEB (NORAD 51475). FALCON 9 DEB can be tracked NOW for your location showing map with azimuth and elevation plus other details from your city location.







IsCatalogInMostPopularTable: catalog: 51475, numindb: 28
Update: records affected: 1



GetName: 51475 FALCON 9 DEB

Hit Count: updated at: Sun, 28 May 2023 19:44:13 GMT